Location: 433rd Scouts Home(Lloyd Manor Park, Etobicoke )
(43.6722°N, 79.5542°W)
Time: 19:49:16
(UTC-04:00)

Nauka - Pass Details

Date: 27 September 2021
Orbit: 418 x 423 km, 51.6° (Epoch: 18 October)

Event Time Altitude Azimuth Distance (km) Brightness Sun altitude
Rises 21:59:10 0° 303° (WNW) 2,368 ? -30.9°
Reaches altitude 10° 22:01:17 10° 308° (NW) 1,503 ? -31.2°
Enters shadow 22:01:37 12° 309° (NW) 1,373 ? -31.3°
